This is the latest recevied weather packets stored in our database for station/object HB9FHL-13. If no packets are shown the sender has not sent any weather packets the latest 10 day(s).
| Time | Temp. | Humidity | Pressure | Rain* | Wind** | Luminosity | Snow |
|---|---|---|---|---|---|---|---|
| 1788457099 | 23.33° C | - | 1022.5 hPa | 0 mm | - | - | - |
| 1788456839 | 22.78° C | - | 1020.4 hPa | 0 mm | - | - | - |
| 1788456799 | 22.78° C | - | 1020.4 hPa | 0 mm | - | - | - |
| 1788456499 | 22.78° C | - | 1023 hPa | 0 mm | - | - | - |
| 1788456198 | 23.33° C | - | 1020.2 hPa | 0 mm | - | - | - |
| 1788455897 | 23.89° C | - | 1026.4 hPa | 0 mm | - | - | - |
| 1788455597 | 23.33° C | - | 1021.7 hPa | 0 mm | - | - | - |
| 1788455298 | 23.33° C | - | 1022.2 hPa | 0 mm | - | - | - |
| 1788454996 | 23.89° C | - | 1025.1 hPa | 0 mm | - | - | - |
| 1788454395 | 23.33° C | - | 1027.2 hPa | 0 mm | - | - | - |
| 1788454095 | 23.89° C | - | 1025.1 hPa | 0 mm | - | - | - |
| 1788453845 | 24.44° C | - | 1025.5 hPa | 0 mm | - | - | - |
| 1788453794 | 24.44° C | - | 1025.5 hPa | 0 mm | - | - | - |
| 1788453494 | 23.89° C | - | 1023.3 hPa | 0 mm | - | - | - |
| 1788453275 | 23.89° C | - | 1024.5 hPa | 0 mm | - | - | - |
| 1788453193 | 23.89° C | - | 1024.5 hPa | 0 mm | - | - | - |
| 1788452893 | 23.89° C | - | 1021.5 hPa | 0 mm | - | - | - |
| 1788452592 | 23.89° C | - | 1021.4 hPa | 0 mm | - | - | - |
| 1788452292 | 23.89° C | - | 1026.3 hPa | 0 mm | - | - | - |
| 1788452082 | 23.33° C | - | 1024.7 hPa | 0 mm | - | - | - |
| 1788451991 | 23.33° C | - | 1024.7 hPa | 0 mm | - | - | - |
| 1788451691 | 23.89° C | - | 1019.8 hPa | 0 mm | - | - | - |
| 1788451390 | 24.44° C | - | 1021.7 hPa | 0 mm | - | - | - |
| 1788451090 | 24.44° C | - | 1024.2 hPa | 0 mm | - | - | - |
| 1788450789 | 25° C | - | 1024.1 hPa | 0 mm | - | - | - |
* Rain since midnight (hover to see other rain measurements)
** Current wind speed in m/s (hover to see current wind gust speed)